Regional Weather Roundup
Issued by NWS

Home | Current Version | Previous Version | Text Only | Print | Product List | Glossary On
Versions: 1 2 3 4 5 6 7 8 9 10 11 12 13 14 15 16 17 18 19 20 21 22 23 24 25 26 27 28 29 30 31 32 33 34 35 36 37 38 39 40 41 42 43 44 45 46 47 48 49 50
114
ASUS43 KMPX 281501
RWRMN
WEATHER ROUNDUP FOR MINNESOTA
NATIONAL WEATHER SERVICE TWIN CITIES/CHANHASSEN MN
1000 AM CDT FRI APR 28 2017


NOTE: "FAIR" INDICATES FEW OR NO CLOUDS BELOW 12,000 FEET WITH NO
SIGNIFICANT WEATHER AND/OR OBSTRUCTIONS TO VISIBILITY. N/A MEANS
CURRENT SKY AND/OR WEATHER CONDITIONS ARE NOT AVAILABLE.

MNZ060>063-068>070-281600-
   Twin Cities Metro

CITY           SKY/WX    TMP DP  RH WIND       PRES   REMARKS
TWIN CITIES    MOSUNNY   40  25  55 N6G17     29.92R
ST PAUL        SUNNY     39  25  57 N7        29.93R
CRYSTAL        SUNNY     39  23  52 N8        29.91R
BLAINE         SUNNY     39  25  56 NW12G17   29.91R
LAKEVILLE      SUNNY     39  28  65 N9        29.91R
EDEN PRAIRIE   SUNNY     41  26  55 MISG      29.90R
SOUTH ST PAUL  SUNNY     40  26  56 N9        29.92R
LAKE ELMO      FAIR      37  27  65 N9        29.92R
$$
MNZ001>005-007-008-013>017-022>024-027-028-281600-
   Northwest Minnesota

CITY           SKY/WX    TMP DP  RH WIND       PRES   REMARKS
BEMIDJI        SUNNY     35  22  60 NW16      29.88S WCI  25
HALLOCK        SUNNY     39  25  56 NW13      29.95R
ROSEAU         SUNNY     36  27  69 NW9       29.90R
WARROAD        SUNNY     36  21  55 NW12      29.90R
THIEF RVR FALL SUNNY     36  25  64 NW14      29.94R
CROOKSTON      SUNNY     37  30  75 NW13      29.96R
FOSSTON        SUNNY     37  25  60 NW9       29.93R
DETROIT LAKES  SUNNY     34  30  86 N7        29.94R WCI  28
MOORHEAD       SUNNY     37  28  70 N9        29.97R
PARK RAPIDS    SUNNY     36  23  59 N9        29.88R
MAHNOMEN       FAIR      33  27  76 N9        29.94R WCI  26
$$
MNZ006-009>011-018-025>026-281600-
   North Central Minnesota

CITY           SKY/WX    TMP DP  RH WIND       PRES   REMARKS
BAUDETTE       MOSUNNY   35  18  49 NW18G25   29.85R WCI  24
FLAG ISLAND    MOSUNNY   34  18  51 NW18      29.87R WCI  23
INTL FALLS     PTSUNNY   34  22  61 NW20G29   29.81R WCI  23
WASKISH        SUNNY     37  25  60 NW14G20   29.87R
BIG FORK       SUNNY     37  19  48 NW12G22   29.83F
LONGVILLE      MOSUNNY   34  27  75 NW9       29.87S WCI  26
GRAND RAPIDS   CLOUDY    33  24  69 NW17      29.86R WCI  22
CRANE LAKE     CLOUDY    30  23  74 NW5       29.80R WCI  25
ORR            CLOUDY    34  21  60 NW14G21   29.78R WCI  24
COOK           PTSUNNY   32  23  69 W13G24    29.81R WCI  22
WALKER         FAIR      33  23  66 NW7       29.88S WCI  27
$$
MNZ012-019>021-037-281600-
   Northeast Minnesota

CITY           SKY/WX    TMP DP  RH WIND       PRES   REMARKS
DULUTH         PTSUNNY   33  24  69 NW16G26   29.81R WCI  23
ELY            CLOUDY    30  21  69 W15G24    29.76R WCI  19
HIBBING        CLOUDY    31  24  75 NW18G28   29.81S WCI  19
EVELETH        CLOUDY    32  23  69 NW14G22   29.81S WCI  22
DULUTH HARBOR  CLOUDY    37  27  65 W16       29.86R
TWO HARBORS    PTSUNNY   36  25  64 W15G22    29.78R
SILVER BAY     CLOUDY    34  25  69 NW8G18    29.76S WCI  27
GRAND MARAIS     N/A     33  28  81 W8        29.74S WCI  26
G MARAIS ARPRT CLOUDY    27  19  74 W3        29.68S
$$
MNZ029>031-032-039>041-046>048-054>057-064-281600-
   West Central Minnesota

CITY           SKY/WX    TMP DP  RH WIND       PRES   REMARKS
FERGUS FALLS   SUNNY     37  28  70 N12       29.97R
WHEATON        SUNNY     39  28  65 NW8       29.99R
MORRIS         MOSUNNY   39  30  70 N15       29.95S
ALEXANDRIA     MOSUNNY   37  27  67 N10       29.95R
ELBOW LAKE     PTSUNNY   35  29  78 NW13      29.97R WCI  27
WADENA         PTSUNNY   34  27  75 NW8       29.92R WCI  27
GLENWOOD       MOSUNNY   36  28  75 NW7       29.95R
APPLETON       SUNNY     39  28  65 N20       29.95S
BENSON         SUNNY     41  27  56 NE16      29.96S
ORTONVILLE     SUNNY     39  28  65 N16       29.96S
MADISON        SUNNY     43  30  61 N20       29.95S
WILLMAR        CLOUDY    37  30  75 N12       29.95R
$$
MNZ033>034-036-042>043-049>051-058-059-281600-
   Central Minnesota

CITY           SKY/WX    TMP DP  RH WIND       PRES   REMARKS
ST CLOUD       MOSUNNY   37  27  67 NW13      29.93R
SAUK CENTRE    CLOUDY    36  27  68 NW13      29.94R
PAYNESVILLE    MOSUNNY   35  28  75 N8        29.94S WCI  29
AITKIN         CLOUDY    37  25  60 NW9       29.88R
PINE RIVER     PTSUNNY   34  27  75 NW13G22   29.93R WCI  25
BRAINERD       PTSUNNY   35  25  66 NW12      29.91R WCI  27
STAPLES        MOSUNNY   34  27  75 N9        29.92R WCI  26
LONG PRAIRIE   PTSUNNY   34  27  75 NW8       29.94R WCI  27
LITTLE FALLS   PTSUNNY   34  27  75 W6        29.93R WCI  29
LITCHFIELD     MOSUNNY   37  28  70 N12       29.93R
BUFFALO        SUNNY     38  25  60 NW7       29.94R
MAPLE LAKE     SUNNY     39  29  67 N13       29.93S
HUTCHINSON     SUNNY     39  30  70 N7G18     29.93R
$$
MNZ037-044-045-052-053-281600-
   East Central Minnesota

CITY           SKY/WX    TMP DP  RH WIND       PRES   REMARKS
PRINCETON      MOSUNNY   37  27  65 NW10      29.93R
MORA           CLOUDY    34  27  75 W6        29.93R WCI  29
CAMBRIDGE      PTSUNNY   37  25  60 NW12      29.91R
RUSH CITY      CLOUDY    36  25  65 W8        29.92R
MOOSE LAKE     CLOUDY    34  25  69 W8        29.86R WCI  27
HINCKLEY       CLOUDY    34  28  80 NW6       29.91R WCI  29
CLOQUET        PTSUNNY   36  21  55 W12       29.84R
MCGREGOR       CLOUDY    34  27  75 W12       29.88R WCI  25
$$
MNZ071>073-080-081-089-090-097-098-281600-
   Southwest Minnesota

CITY           SKY/WX    TMP DP  RH WIND       PRES   REMARKS
MONTEVIDEO     MOSUNNY   41  28  60 NE17G24   29.94S
GRANITE FALLS  SUNNY     40  30  67 N16G22    29.94F
CANBY          SUNNY     40  29  64 NE15G22   29.95S
MARSHALL       CLOUDY    39  28  64 N17       29.94R
REDWOOD FALLS  PTSUNNY   40  28  62 N12G17    29.93R
OLIVIA         PTSUNNY   39  32  75 N13       29.92S
PIPESTONE      CLOUDY    37  25  60 NE18G24   29.89S
WINDOM         CLOUDY    39  32  75 N12       29.91R
WORTHINGTON    CLOUDY    37  31  78 NE12      29.91R
JACKSON        CLOUDY    37  30  75 N12       29.91R
TRACY          MOSUNNY   38  32  77 N14       29.93R
SLAYTON        MOSUNNY   35  29  79 N18       29.90S WCI  24
$$
MNZ065>067-074>077-082>085-091>093-281600-
   South Central Minnesota

CITY           SKY/WX    TMP DP  RH WIND       PRES   REMARKS
MANKATO          N/A     39  30  70 N9        29.91R
NEW ULM        CLOUDY    39  28  65 N10       29.91R
ST JAMES       CLOUDY    39  32  75 N9        29.93R
FAIRMONT       CLOUDY    39  30  70 N9        29.92R
GLENCOE        SUNNY     40  30  67 N15G21    29.91S
FARIBAULT      CLOUDY    43  32  65 N9        29.91R
OWATONNA       CLOUDY    41  30  65 N9        29.90R
WASECA         CLOUDY    39  32  75 N8        29.92R
ALBERT LEA     CLOUDY    39  30  70 N5        29.90S
$$
MNZ078>079-086>088-094>096-281600-
   Southeast Minnesota

CITY           SKY/WX    TMP DP  RH WIND       PRES   REMARKS
ROCHESTER      CLOUDY    40  31  70 NW8       29.89S
RED WING       MOSUNNY   43  25  49 N3        29.91R
STANTON        MOSUNNY   42  30  62 N7        29.90R
DODGE CENTER   CLOUDY    37  30  75 NW7       29.89F
WINONA         SUNNY     41  30  65 N5        29.92R
AUSTIN         CLOUDY    39  30  70 CALM      29.90S
PRESTON        CLOUDY    40  29  64 NW6       29.89F
$$
ABBREVIATIONS USED IN REMARKS
   TC - TEMPERATURES IN CELSIUS
  WCI - WIND CHILL INDEX
   HX - HEAT INDEX
  VSB - VISIBILITY
$$




USA.gov is the U.S. government's official web portal to all federal, state and local government web resources and services.